User: anonymous   Login
Location: Le Vaud
(46.4779°N, 6.2346°E)
Time: 19:45:33
(UTC+00:00)
Language:

Okean O Rocket - Orbit

View from above orbital plane
View from above orbital plane
View from above satellite
View from above satellite

Ground track
Ground track

The orbit data is extracted from the following two-line orbital elements,

1 25861U 99039B   20158.58155170 +.00000006 +00000-0 +83841-5 0  9995
2 25861 098.2072 160.5245 0015395 187.9465 283.0327 14.78579152126012
Epoch (UTC): 06 June 2020 13:57:26
Eccentricity: 0.0015395
inclination: 98.2072°
perigee height: 623 km
apogee height: 644 km
right ascension of ascending node: 160.5245°
argument of perigee: 187.9465°
revolutions per day: 14.78579152
mean anomaly at epoch: 283.0327°
orbit number at epoch: 12601

The dashed part of the orbit path shows where the satellite is in the earth's shadow,  

DLR